Location: ???????
(52.3000°N, 54.4667°E)
Time: 19:19:15
(UTC+00:00)

Cosmos 2227 Rocket - Pass Details

Date: 24 January 2020
Orbit: 841 x 843 km, 71.0° (Epoch: 16 February)

Event Time Altitude Azimuth Distance (km) Brightness Sun altitude
Rises 16:12:46 0° 244° (WSW) 3,393 6.1 -30.1°
Reaches altitude 10° 16:15:29 10° 255° (WSW) 2,461 5.4 -30.5°
Maximum altitude 16:20:30 32° 317° (NW) 1,417 3.7 -31.3°
Enters shadow 16:22:32 25° 354° (N) 1,638 3.8 -31.6°
